Time,TemperatureF,DewpointF,PressureIn,WindDirection,WindDirectionDegrees,WindSpeedMPH,WindSpeedGustMPH,Humidity,HourlyPrecipIn,Conditions,Clouds,dailyrainin,SolarRadiationWatts/m^2,SoftwareType,DateUTC
2013-04-30 00:02:00,42.0,33.0,-100.00,NNW,334,5.0,19.0,71,0.00,,,0.00,1.000000,,2013-04-30 06:02:00,
2013-04-30 00:12:00,42.0,33.0,-100.00,NNW,334,5.0,19.0,71,0.00,,,0.00,1.000000,,2013-04-30 06:12:00,
2013-04-30 00:21:00,42.0,33.0,-100.00,NNW,334,5.0,19.0,71,0.00,,,0.00,1.000000,,2013-04-30 06:21:00,
2013-04-30 00:31:00,42.0,33.0,-100.00,NNW,334,5.0,19.0,71,0.00,,,0.00,1.000000,,2013-04-30 06:31:00,
2013-04-30 01:01:00,41.0,32.0,-100.00,NW,321,5.0,16.0,69,0.00,,,0.00,0.000000,,2013-04-30 07:01:00,
2013-04-30 01:11:00,41.0,32.0,-100.00,NW,321,5.0,16.0,69,0.00,,,0.00,0.000000,,2013-04-30 07:11:00,
2013-04-30 01:21:00,41.0,32.0,-100.00,NW,321,5.0,16.0,69,0.00,,,0.00,0.000000,,2013-04-30 07:21:00,
2013-04-30 01:31:00,41.0,32.0,-100.00,NW,321,5.0,16.0,69,0.00,,,0.00,0.000000,,2013-04-30 07:31:00,
2013-04-30 02:02:00,40.0,31.0,-100.00,NW,309,6.0,23.0,69,0.00,,,0.00,1.000000,,2013-04-30 08:02:00,
2013-04-30 02:11:00,40.0,31.0,-100.00,NW,309,6.0,23.0,69,0.00,,,0.00,1.000000,,2013-04-30 08:11:00,
2013-04-30 02:22:00,40.0,31.0,-100.00,NW,309,6.0,23.0,69,0.00,,,0.00,1.000000,,2013-04-30 08:22:00,
2013-04-30 02:32:00,40.0,31.0,-100.00,NW,309,6.0,23.0,69,0.00,,,0.00,1.000000,,2013-04-30 08:32:00,
2013-04-30 03:01:00,39.0,26.0,-100.00,NW,317,9.0,24.0,60,0.00,,,0.00,1.000000,,2013-04-30 09:01:00,
2013-04-30 03:11:00,39.0,26.0,-100.00,NW,317,9.0,24.0,60,0.00,,,0.00,1.000000,,2013-04-30 09:11:00,
2013-04-30 03:22:00,39.0,26.0,-100.00,NW,317,9.0,24.0,60,0.00,,,0.00,1.000000,,2013-04-30 09:22:00,
2013-04-30 03:33:00,39.0,26.0,-100.00,NW,317,9.0,24.0,60,0.00,,,0.00,1.000000,,2013-04-30 09:33:00,
2013-04-30 04:03:00,38.0,25.0,-100.00,NW,316,10.0,19.0,58,0.00,,,0.00,0.000000,,2013-04-30 10:03:00,
2013-04-30 04:11:00,38.0,25.0,-100.00,NW,316,10.0,19.0,58,0.00,,,0.00,0.000000,,2013-04-30 10:11:00,
2013-04-30 04:22:00,38.0,25.0,-100.00,NW,316,10.0,19.0,58,0.00,,,0.00,0.000000,,2013-04-30 10:22:00,
2013-04-30 04:32:00,38.0,25.0,-100.00,NW,316,10.0,19.0,58,0.00,,,0.00,0.000000,,2013-04-30 10:32:00,
2013-04-30 05:02:00,38.0,20.0,-100.00,WNW,290,6.0,18.0,48,0.00,,,0.00,0.000000,,2013-04-30 11:02:00,
2013-04-30 05:11:00,38.0,20.0,-100.00,WNW,290,6.0,18.0,48,0.00,,,0.00,0.000000,,2013-04-30 11:11:00,
2013-04-30 05:21:00,38.0,20.0,-100.00,WNW,290,6.0,18.0,48,0.00,,,0.00,0.000000,,2013-04-30 11:21:00,
2013-04-30 05:31:00,38.0,20.0,-100.00,WNW,290,6.0,18.0,48,0.00,,,0.00,0.000000,,2013-04-30 11:31:00,
2013-04-30 06:01:00,39.0,18.0,-100.00,WSW,256,5.0,14.0,43,0.00,,,0.00,1.000000,,2013-04-30 12:01:00,
2013-04-30 06:11:00,39.0,18.0,-100.00,WSW,256,5.0,14.0,43,0.00,,,0.00,1.000000,,2013-04-30 12:11:00,
2013-04-30 06:21:00,39.0,18.0,-100.00,WSW,256,5.0,14.0,43,0.00,,,0.00,1.000000,,2013-04-30 12:21:00,
2013-04-30 06:31:00,39.0,18.0,-100.00,WSW,256,5.0,14.0,43,0.00,,,0.00,1.000000,,2013-04-30 12:31:00,
2013-04-30 08:02:00,42.0,13.0,-100.00,West,261,4.0,10.0,30,-99.99,,,0.00,114.000000,,2013-04-30 14:02:00,
2013-04-30 08:11:00,42.0,13.0,-100.00,West,261,4.0,10.0,30,-99.99,,,0.00,114.000000,,2013-04-30 14:11:00,
2013-04-30 08:21:00,42.0,13.0,-100.00,West,261,4.0,10.0,30,-99.99,,,0.00,114.000000,,2013-04-30 14:21:00,
2013-04-30 08:31:00,42.0,13.0,-100.00,West,261,4.0,10.0,30,-99.99,,,0.00,114.000000,,2013-04-30 14:31:00,
2013-04-30 09:01:00,45.0,13.0,-100.00,WNW,289,7.0,22.0,27,0.00,,,0.00,343.000000,,2013-04-30 15:01:00,
2013-04-30 09:11:00,45.0,13.0,-100.00,WNW,289,7.0,22.0,27,0.00,,,0.00,343.000000,,2013-04-30 15:11:00,
2013-04-30 09:21:00,45.0,13.0,-100.00,WNW,289,7.0,22.0,27,0.00,,,0.00,343.000000,,2013-04-30 15:21:00,
2013-04-30 09:32:00,45.0,13.0,-100.00,WNW,289,7.0,22.0,27,0.00,,,0.00,343.000000,,2013-04-30 15:32:00,
2013-04-30 10:02:00,48.0,11.0,-100.00,WNW,290,7.0,19.0,22,0.00,,,0.00,591.000000,,2013-04-30 16:02:00,
2013-04-30 10:12:00,48.0,11.0,-100.00,WNW,290,7.0,19.0,22,0.00,,,0.00,591.000000,,2013-04-30 16:12:00,
2013-04-30 10:23:00,48.0,11.0,-100.00,WNW,290,7.0,19.0,22,0.00,,,0.00,591.000000,,2013-04-30 16:23:00,
2013-04-30 10:33:00,48.0,11.0,-100.00,WNW,290,7.0,19.0,22,0.00,,,0.00,591.000000,,2013-04-30 16:33:00,
2013-04-30 11:02:00,50.0,15.0,-100.00,WNW,288,6.0,15.0,24,0.00,,,0.00,716.000000,,2013-04-30 17:02:00,
2013-04-30 11:12:00,50.0,15.0,-100.00,WNW,288,6.0,15.0,24,0.00,,,0.00,716.000000,,2013-04-30 17:12:00,
2013-04-30 11:22:00,50.0,15.0,-100.00,WNW,288,6.0,15.0,24,0.00,,,0.00,716.000000,,2013-04-30 17:22:00,
2013-04-30 11:32:00,50.0,15.0,-100.00,WNW,288,6.0,15.0,24,0.00,,,0.00,716.000000,,2013-04-30 17:32:00,
2013-04-30 12:01:00,49.0,16.0,-100.00,NW,323,8.0,15.0,26,0.00,,,0.00,597.000000,,2013-04-30 18:01:00,
2013-04-30 12:11:00,49.0,16.0,-100.00,NW,323,8.0,15.0,26,0.00,,,0.00,597.000000,,2013-04-30 18:11:00,
2013-04-30 12:22:00,49.0,16.0,-100.00,NW,323,8.0,15.0,26,0.00,,,0.00,597.000000,,2013-04-30 18:22:00,
2013-04-30 12:32:00,49.0,16.0,-100.00,NW,323,8.0,15.0,26,0.00,,,0.00,597.000000,,2013-04-30 18:32:00,
2013-04-30 13:01:00,50.0,18.0,-100.00,NW,307,7.0,13.0,28,0.00,,,0.00,624.000000,,2013-04-30 19:01:00,
2013-04-30 13:11:00,50.0,18.0,-100.00,NW,307,7.0,13.0,28,0.00,,,0.00,624.000000,,2013-04-30 19:11:00,
2013-04-30 13:22:00,50.0,18.0,-100.00,NW,307,7.0,13.0,28,0.00,,,0.00,624.000000,,2013-04-30 19:22:00,
2013-04-30 13:32:00,50.0,18.0,-100.00,NW,307,7.0,13.0,28,0.00,,,0.00,624.000000,,2013-04-30 19:32:00,
2013-04-30 14:02:00,46.0,21.0,-100.00,South,184,6.0,16.0,37,0.00,,,0.00,210.000000,,2013-04-30 20:02:00,
2013-04-30 14:11:00,46.0,21.0,-100.00,South,184,6.0,16.0,37,0.00,,,0.00,210.000000,,2013-04-30 20:11:00,
2013-04-30 14:21:00,46.0,21.0,-100.00,South,184,6.0,16.0,37,0.00,,,0.00,210.000000,,2013-04-30 20:21:00,
2013-04-30 14:32:00,46.0,21.0,-100.00,South,184,6.0,16.0,37,0.00,,,0.00,210.000000,,2013-04-30 20:32:00,
2013-04-30 15:02:00,44.0,23.0,-100.00,East,99,5.0,14.0,43,0.00,,,0.00,139.000000,,2013-04-30 21:02:00,
2013-04-30 15:11:00,44.0,23.0,-100.00,East,99,5.0,14.0,43,0.00,,,0.00,139.000000,,2013-04-30 21:11:00,
2013-04-30 15:22:00,44.0,23.0,-100.00,East,99,5.0,14.0,43,0.00,,,0.00,139.000000,,2013-04-30 21:22:00,
2013-04-30 15:32:00,44.0,23.0,-100.00,East,99,5.0,14.0,43,0.00,,,0.00,139.000000,,2013-04-30 21:32:00,
2013-04-30 16:02:00,39.0,30.0,-100.00,NNE,13,5.0,12.0,70,0.00,,,0.00,79.000000,,2013-04-30 22:02:00,
2013-04-30 16:12:00,39.0,30.0,-100.00,NNE,13,5.0,12.0,70,0.00,,,0.00,79.000000,,2013-04-30 22:12:00,
2013-04-30 16:23:00,39.0,30.0,-100.00,NNE,13,5.0,12.0,70,0.00,,,0.00,79.000000,,2013-04-30 22:23:00,
2013-04-30 16:32:00,39.0,30.0,-100.00,NNE,13,5.0,12.0,70,0.00,,,0.00,79.000000,,2013-04-30 22:32:00,
2013-04-30 17:02:00,35.0,32.0,-100.00,NNE,28,2.0,8.0,88,0.00,,,0.00,59.000000,,2013-04-30 23:02:00,
2013-04-30 17:12:00,35.0,32.0,-100.00,NNE,28,2.0,8.0,88,0.00,,,0.00,59.000000,,2013-04-30 23:12:00,
2013-04-30 17:22:00,35.0,32.0,-100.00,NNE,28,2.0,8.0,88,0.00,,,0.00,59.000000,,2013-04-30 23:22:00,
2013-04-30 17:32:00,35.0,32.0,-100.00,NNE,28,2.0,8.0,88,0.00,,,0.00,59.000000,,2013-04-30 23:32:00,
2013-04-30 18:02:00,33.0,32.0,-100.00,North,2,2.0,7.0,95,0.01,,,-99.99,33.000000,,2013-05-01 00:02:00,
2013-04-30 18:11:00,33.0,32.0,-100.00,North,2,2.0,7.0,95,0.01,,,-99.99,33.000000,,2013-05-01 00:11:00,
2013-04-30 18:21:00,33.0,32.0,-100.00,North,2,2.0,7.0,95,0.01,,,-99.99,33.000000,,2013-05-01 00:21:00,
2013-04-30 18:32:00,33.0,32.0,-100.00,North,2,2.0,7.0,95,0.01,,,-99.99,33.000000,,2013-05-01 00:32:00,
2013-04-30 18:52:00,33.0,32.0,-100.00,SSE,160,2.0,3.0,96,0.00,,,0.01,21.000000,,2013-05-01 00:52:00,
2013-04-30 19:01:00,33.0,32.0,-100.00,SSE,160,2.0,3.0,96,0.00,,,0.01,21.000000,,2013-05-01 01:01:00,
2013-04-30 19:11:00,33.0,32.0,-100.00,SSE,160,2.0,3.0,96,0.00,,,0.01,21.000000,,2013-05-01 01:11:00,
2013-04-30 19:21:00,33.0,32.0,-100.00,SSE,160,2.0,3.0,96,0.00,,,0.01,21.000000,,2013-05-01 01:21:00,
2013-04-30 19:31:00,33.0,32.0,-100.00,SSE,160,2.0,3.0,96,0.00,,,0.01,21.000000,,2013-05-01 01:31:00,
2013-04-30 20:02:00,33.0,31.0,-100.00,NNW,344,3.0,6.0,93,0.01,,,0.02,12.000000,,2013-05-01 02:02:00,
2013-04-30 20:11:00,33.0,31.0,-100.00,NNW,344,3.0,6.0,93,0.01,,,0.02,12.000000,,2013-05-01 02:11:00,
2013-04-30 20:21:00,33.0,31.0,-100.00,NNW,344,3.0,6.0,93,0.01,,,0.02,12.000000,,2013-05-01 02:21:00,
2013-04-30 20:32:00,33.0,31.0,-100.00,NNW,344,3.0,6.0,93,0.01,,,0.02,12.000000,,2013-05-01 02:32:00,
2013-04-30 21:02:00,32.0,30.0,-100.00,NNW,328,4.0,8.0,94,0.01,,,0.03,2.000000,,2013-05-01 03:02:00,
2013-04-30 21:11:00,32.0,30.0,-100.00,NNW,328,4.0,8.0,94,0.01,,,0.03,2.000000,,2013-05-01 03:11:00,
2013-04-30 21:21:00,32.0,30.0,-100.00,NNW,328,4.0,8.0,94,0.01,,,0.03,2.000000,,2013-05-01 03:21:00,
2013-04-30 21:33:00,32.0,30.0,-100.00,NNW,328,4.0,8.0,94,0.01,,,0.03,2.000000,,2013-05-01 03:33:00,
2013-04-30 22:03:00,31.0,29.0,-100.00,NW,313,3.0,12.0,91,0.00,,,-99.99,1.000000,,2013-05-01 04:03:00,
2013-04-30 22:12:00,31.0,29.0,-100.00,NW,313,3.0,12.0,91,0.00,,,-99.99,1.000000,,2013-05-01 04:12:00,
2013-04-30 22:22:00,31.0,29.0,-100.00,NW,313,3.0,12.0,91,0.00,,,-99.99,1.000000,,2013-05-01 04:22:00,
2013-04-30 22:32:00,31.0,29.0,-100.00,NW,313,3.0,12.0,91,0.00,,,-99.99,1.000000,,2013-05-01 04:32:00,
2013-04-30 23:02:00,31.0,26.0,-100.00,North,356,4.0,8.0,82,0.00,,,-99.99,0.000000,,2013-05-01 05:02:00,
2013-04-30 23:11:00,31.0,26.0,-100.00,North,356,4.0,8.0,82,0.00,,,-99.99,0.000000,,2013-05-01 05:11:00,
2013-04-30 23:21:00,31.0,26.0,-100.00,North,356,4.0,8.0,82,0.00,,,-99.99,0.000000,,2013-05-01 05:21:00,
2013-04-30 23:32:00,31.0,26.0,-100.00,North,356,4.0,8.0,82,0.00,,,-99.99,0.000000,,2013-05-01 05:32:00,